Regional Weather Roundup
Issued by NWS

Home | Current Version | Previous Version | Text Only | Print | Product List | Glossary Off
Versions: 1 2 3 4 5 6 7 8 9 10 11 12 13 14 15 16 17 18 19 20 21 22 23 24 25 26 27 28 29 30 31 32 33 34 35 36 37 38 39 40 41 42 43 44 45 46 47 48 49 50

000
ASUS43 KDMX 300908
RWRIA

WEATHER ROUNDUP FOR IOWA
NATIONAL WEATHER SERVICE DES MOINES IA
400 AM CDT MON MAY 30 2016

NOTE: "FAIR" INDICATES FEW OR NO CLOUDS BELOW 12,000 FEET WITH NO
SIGNIFICANT WEATHER AND/OR OBSTRUCTIONS TO VISIBILITY.

* - THESE STATIONS ARE NOT NWS STATIONS...THUS NOT UNDER NWS
QUALITY CONTROL.  THEY ALSO DO NOT REPORT WEATHER SUCH
AS PRECIPITATION OR FOG.

IAZ001>003-012>014-020>022-031>034-043>046-301000-
   NORTHWEST IOWA

CITY           SKY/WX    TMP DP  RH WIND       PRES   REMARKS
CARROLL *      CLEAR     63  57  82 SE6       29.99F
CHEROKEE *     CLOUDY    61  57  88 CALM      30.00R
DENISON *      CLEAR     63  57  82 CALM      29.97F
LE MARS *      MOCLDY    64  55  72 N13G21    30.05R
ORANGE CITY *  LGT RAIN  63  54  72 N14G22    30.05R
SHELDON *      RAIN      63  52  67 W20       30.06R
SIOUX CITY     CLOUDY    63  57  81 N6        29.98F
SPENCER        CLOUDY    57  54  89 E3        29.99F
STORM LAKE *   PTCLDY    63  52  67 SE9       30.00F
$$

IAZ055>058-069>071-079>083-090>094-301000-
   SOUTHWEST IOWA

CITY           SKY/WX    TMP DP  RH WIND       PRES   REMARKS
ATLANTIC *     CLEAR     63  61  94 CALM      30.00R
AUDUBON *      CLEAR     61  55  82 CALM      30.00F
CLARINDA *       N/A     63  61  94 MISG      30.02R
COUNCIL BLFS * CLEAR     68  59  73 SW5       29.99S
CRESTON *      CLEAR     66  59  77 SW5       30.02F
HARLAN  *      CLEAR     63  61  94 CALM      30.02F
LAMONI         CLEAR     64  61  90 SW6       30.02R
RED OAK *      CLEAR     64  63  94 W5        30.00R
SHENANDOAH *   CLEAR     66  64  94 CALM      30.00S
$$

IAZ047>049-059>061-072>074-084-301000-
   CENTRAL IOWA

CITY           SKY/WX    TMP DP  RH WIND       PRES   REMARKS
AMES           CLOUDY    61  58  90 CALM      30.00F
ANKENY *       PTCLDY    59  59 100 CALM      29.99F
BOONE *        CLEAR     64  57  77 CALM      30.00S
CHARITON *     PTCLDY    70  59  68 SW5       30.01S
DES MOINES     CLOUDY    67  58  72 S6        29.99F
GRINNELL*      CLOUDY    63  57  82 CALM      30.02S
KNOXVILLE *    CLOUDY    70  63  78 CALM      30.00S
MARSHALLTOWN   MOCLDY    62  59  90 CALM      30.00F
NEWTON *       CLOUDY    63  61  94 CALM      30.00F
PELLA *        LGT RAIN  64  63  94 CALM      30.02S
PERRY *          N/A     66  59  77 E3        29.99F
$$

IAZ004>006-015-016-023>025-035-036-301000-
   NORTH CENTRAL IOWA

CITY           SKY/WX    TMP DP  RH WIND       PRES   REMARKS
ALGONA *       PTCLDY    59  54  82 CALM      30.01S
CLARION *      MOCLDY    59  54  82 E7        30.00F
ESTHERVILLE    CLOUDY    56  53  90 CALM      30.00F
FORT DODGE *   CLOUDY    61  52  72 E3        30.01F
MASON CITY     CLOUDY    54  52  93 CALM      30.03F
FOREST CITY *  CLEAR     50  50 100 CALM      30.01F FOG
WEBSTER CITY * PTCLDY    61  57  88 SE3       29.99F
IOWA FALLS *   MOCLDY    61  57  88 CALM      30.03S
$$

IAZ007>011-017>019-026>030-037>042-050>054-066-301000-
   NORTHEAST IOWA

CITY           SKY/WX    TMP DP  RH WIND       PRES   REMARKS
CEDAR RAPIDS   CLOUDY    60  58  92 S8        30.00S
CHARLES CITY * CLEAR     59  55  88 CALM      30.02S
CLINTON *      CLEAR     63  59  87 CALM      30.02S
DECORAH *      CLEAR     59  59 100 CALM      30.01R
DUBUQUE        CLEAR     60  56  86 CALM      30.01S
MONTICELLO *   CLEAR     59  59 100 CALM      30.01R
OELWEIN *      CLEAR     63  59  88 NW3       30.03R
WATERLOO       CLOUDY    57  56  96 CALM      30.01R
$$

IAZ064-065-067-068-078-301000-
   EAST CENTRAL IOWA

CITY           SKY/WX    TMP DP  RH WIND       PRES   REMARKS
DAVENPORT      CLOUDY    64  57  78 NW8       30.02R
IOWA CITY      CLOUDY    64  58  80 CALM      30.02S
MT. PLEASANT * PTCLDY    66  64  94 SW5       30.03R
MUSCATINE *    CLEAR     68  59  73 CALM      30.01S
QUAD CITIES    CLOUDY    62  56  80 CALM      30.00F
$$

IAZ062-063-075>077-085>089-095>099-301000-
   SOUTHEAST IOWA

CITY           SKY/WX    TMP DP  RH WIND       PRES   REMARKS
BURLINGTON     PTCLDY    65  63  93 W3        30.02S
FAIRFIELD *      N/A    N/A N/A N/A MISG        N/A
FORT MADISON * PTCLDY    68  63  83 CALM      30.03R
KEOKUK *       MOCLDY    66  63  88 W6G15     30.02S
OSKALOOSA *    MOCLDY    68  61  77 W7        30.02R
OTTUMWA        CLOUDY    66  61  84 S7        30.01R
WASHINGTON *   PTCLDY    63 N/A N/A S7        30.03R
$$

ABBREVIATIONS USED IN REMARKS
   TC - TEMPERATURES IN CELSIUS
  WCI - WIND CHILL INDEX
   HX - HEAT INDEX
  VSB - VISIBILITY
$$




USA.gov is the U.S. government's official web portal to all federal, state and local government web resources and services.